STARLINK-3755, 52307

Orbit data source: Space-Track

STARLINK-3755, 52307 is a payload satellite owned by SpaceX/Seattle (US) in LEO that was launched on Thu, 21 Apr 2022 UTC via an FALCON 9 launch vehicle from the Air Force Eastern Test Range (AFETR). Payload-class satellites include a variety of spacecraft equipped with specific instruments for various scientific and technological missions. These include communications satellites like Starlink; space stations such as the ISS; scientific satellites like the Hubble; Earth observation satellites from companies like Planet Labs, Umbra, and HawkEye 360; GPS; miniature CubeSats for education and research; and military/defense satellites.

Loading next visibility...
Identifier
52307, 2022-041AY
Orbit
LEO
Country
Flag of USUS
Related business
Manufacturer
SpaceX/Seattle
Mission
Operational Commercial Communications
Bus & Motor
STARLINK, Unknown motor
Mass
297 kg wet, ~275 kg dry
Launch date (UTC)
2022-04-21 (4 years ago)
Launch vehicle
FALCON 9
Launch site
Air Force Eastern Test Range (AFETR)
Object type
Payload
Rocket body
Debris
Shape & HBR
Box + 1 Pan, 10.1 m
Radar Cross Section
11.087 m², Large (>1 m²)

Expand to show TLE details & history
Last TLE update: 16 hours ago

TLE from 16 hours ago
0 STARLINK-3755
1 52307U 22041AY  26129.85979273 -.00000134  00000-0  96620-5 0  9993
2 52307  53.2164 184.5170 0001130  87.0854 273.0268 15.08837350223749
Epoch: 2026-05-09T20:38Z
TLE epoch observation values (Epoch: 2026-05-09T20:38:06.091Z)
Latitude
Longitude
7.32045°
Altitude
540.608 km
Speed
7.593 km/s
True Right ascension
12h 18m 04s
True Declination
0° 00' 00"
Sunlit
Object was in full shadow at epoch
Visualization orbit readout
Latitude
Unknown
Longitude
Unknown
Altitude
Unknown
Speed
Unknown
Apparent Right ascension
Unknown
Apparent Declination
Unknown
Sunlit
N/A
Visualization observer readout
Local Sidereal Time
20:35:32
Azimuth
Unknown
Elevation
Unknown
Doppler factor
Unknown
Orbital elements
Apogee altitude
540.778 km
Perigee altitude
539.215 km
Semi-major axis
6,918.134 km
Eccentricity
0.00011
Inclination
53.2164°
RAAN
184.517°
Arg. of periapsis
87.0854°
True anomaly
273.01387°
Mean anomaly
273.0268°
Eccentric anomaly
273.02033°
Mean motion
3.7719 °/min
Orbital period
95.44 mins
BSTAR
0.000009662
Loading maneuver chart data...
Computing Atmospheric mass density...
Loading historical data...
Loading historical data...
Loading historical data...
Loading historical data...
Loading historical data...
Loading historical data...
Loading historical data...

Documentation

Showing up to 5 results
|